This is the latest recevied weather packets stored in our database for station/object KB3AWQ. If no packets are shown the sender has not sent any weather packets the latest 10 day(s).
| Time | Temp. | Humidity | Pressure | Rain* | Wind** | Luminosity | Snow |
|---|---|---|---|---|---|---|---|
| 1777981166 | 12.78° C | 92% | 1009 hPa | 0 mm | - | 94 W/m² | - |
| 1777980866 | 12.78° C | 93% | 1008.8 hPa | 0 mm | - | 113 W/m² | - |
| 1777980567 | 12.22° C | 94% | 1008.7 hPa | 0 mm | - | 88 W/m² | - |
| 1777980266 | 12.22° C | 94% | 1008.7 hPa | 0 mm | - | 94 W/m² | - |
| 1777979966 | 12.22° C | 94% | 1008.6 hPa | 0 mm | - | 51 W/m² | - |
| 1777979666 | 12.22° C | 94% | 1008.6 hPa | 0 mm | - | 41 W/m² | - |
| 1777979366 | 12.22° C | 94% | 1008.5 hPa | 0 mm | - | 33 W/m² | - |
| 1777979066 | 11.67° C | 94% | 1008.4 hPa | 0.25 mm | - | 49 W/m² | - |
| 1777978766 | 11.67° C | 94% | 1008.5 hPa | 0.25 mm | - | 40 W/m² | - |
| 1777978466 | 11.67° C | 94% | 1008.6 hPa | 0.25 mm | - | 29 W/m² | - |
| 1777978167 | 11.67° C | 94% | 1008.5 hPa | 0.25 mm | - | 27 W/m² | - |
| 1777977868 | 11.67° C | 94% | 1008.4 hPa | 0.25 mm | - | 30 W/m² | - |
| 1777977567 | 11.11° C | 95% | 1008.6 hPa | 0.25 mm | - | 23 W/m² | - |
| 1777977267 | 11.11° C | 95% | 1008.5 hPa | 0.25 mm | - | 18 W/m² | - |
| 1777976967 | 11.11° C | 94% | 1008.4 hPa | 0.25 mm | - | 15 W/m² | - |
| 1777976666 | 11.11° C | 94% | 1008.4 hPa | 0.25 mm | - | 12 W/m² | - |
| 1777976367 | 11.11° C | 94% | 1008.3 hPa | 0.25 mm | - | 9 W/m² | - |
| 1777976066 | 11.11° C | 93% | 1008.3 hPa | 0 mm | - | 8 W/m² | - |
| 1777975768 | 11.11° C | 93% | 1008.2 hPa | 0 mm | - | 4 W/m² | - |
| 1777975466 | 11.11° C | 92% | 1008.3 hPa | 0 mm | - | 1 W/m² | - |
| 1777975166 | 11.11° C | 93% | 1008.4 hPa | 0 mm | - | 1 W/m² | - |
| 1777974866 | 10.56° C | 92% | 1008.5 hPa | 0 mm | - | 1 W/m² | - |
| 1777974567 | 10.56° C | 92% | 1008.4 hPa | 0 mm | - | 1 W/m² | - |
| 1777974267 | 10.56° C | 92% | 1008.3 hPa | 0 mm | - | 0 W/m² | - |
| 1777973966 | 10.56° C | 92% | 1008.2 hPa | 0 mm | - | 0 W/m² | - |
* Rain latest hour (hover to see other rain measurements)
** Current wind speed in m/s (hover to see current wind gust speed)